This is the latest recevied weather packets stored in our database for station/object LX0APE-4. If no packets are shown the sender has not sent any weather packets the latest 10 day(s).
| Time | Temp. | Humidity | Pressure | Rain* | Wind** | Luminosity | Snow |
|---|---|---|---|---|---|---|---|
| 1776972140 | 15.56° C | 25% | 5021.1 hPa | 0 mm | - | - | - |
| 1776971840 | 16.11° C | 25% | 5021.1 hPa | 0 mm | - | - | - |
| 1776971540 | 16.11° C | 24% | 5021.1 hPa | 0 mm | - | - | - |
| 1776971240 | 16.11° C | 24% | 5021 hPa | 0 mm | - | - | - |
| 1776970940 | 16.11° C | 24% | 5021.1 hPa | 0 mm | - | - | - |
| 1776970640 | 16.67° C | 24% | 5020.8 hPa | 0 mm | - | - | - |
| 1776970340 | 16.67° C | 24% | 5020.9 hPa | 0 mm | - | - | - |
| 1776970040 | 17.22° C | 24% | 5020.9 hPa | 0 mm | - | - | - |
| 1776969740 | 17.22° C | 24% | 5020.9 hPa | 0 mm | - | - | - |
| 1776969440 | 17.78° C | 23% | 5020.8 hPa | 0 mm | - | - | - |
| 1776969140 | 17.78° C | 23% | 5020.9 hPa | 0 mm | - | - | - |
| 1776968840 | 18.89° C | 22% | 5021 hPa | 0 mm | - | - | - |
| 1776968540 | 19.44° C | 22% | 5020.8 hPa | 0 mm | - | - | - |
| 1776968240 | 20° C | 21% | 5020.9 hPa | 0 mm | - | - | - |
| 1776967940 | 20° C | 22% | 5020.9 hPa | 0 mm | - | - | - |
| 1776967640 | 20° C | 21% | 5020.8 hPa | 0 mm | - | - | - |
| 1776967340 | 21.11° C | 21% | 5020.9 hPa | 0 mm | - | - | - |
| 1776967040 | 21.67° C | 19% | 5020.7 hPa | 0 mm | - | - | - |
| 1776966740 | 22.78° C | 19% | 5020.6 hPa | 0 mm | - | - | - |
| 1776966440 | 22.78° C | 19% | 5020.8 hPa | 0 mm | - | - | - |
| 1776966140 | 23.89° C | 18% | 5020.6 hPa | 0 mm | - | - | - |
| 1776965840 | 26.11° C | 17% | 5020.7 hPa | 0 mm | - | - | - |
| 1776965540 | 26.67° C | 18% | 5020.8 hPa | 0 mm | - | - | - |
| 1776965240 | 26.67° C | 17% | 5020.6 hPa | 0 mm | - | - | - |
| 1776964940 | 27.22° C | 17% | 5020.6 hPa | 0 mm | - | - | - |
* Rain latest hour (hover to see other rain measurements)
** Current wind speed in m/s (hover to see current wind gust speed)